Location: Le Domaine
(47.0333°N, 76.5361°W)
Time: 21:37:57
(UTC-04:00)

N. Korean satellite - Visible Passes

Search period start: 18 March 2019 00:00
Search period end: 28 March 2019 00:00
Orbit: 455 x 511 km, 97.2° (Epoch: 18 March)

Date Brightness Start Highest point End Pass type
(mag) Time Alt. Az. Time Alt. Az. Time Alt. Az.
19 Mar 9.4 06:38:29 10° NE 06:41:22 23° E 06:44:16 10° SSE visible
20 Mar 10.1 06:14:47 10° ENE 06:16:22 13° E 06:17:58 10° ESE visible
24 Mar 10.4 06:09:25 10° ENE 06:10:28 11° E 06:11:30 10° ESE visible
27 Mar 9.8 06:27:01 10° NE 06:29:34 18° E 06:32:08 10° SE visible
